This is the latest recevied weather packets stored in our database for station/object AK4NG. If no packets are shown the sender has not sent any weather packets the latest 10 day(s).
| Time | Temp. | Humidity | Pressure | Rain* | Wind** | Luminosity | Snow |
|---|---|---|---|---|---|---|---|
| 1777898118 | 14.44° C | 75% | 1018.9 hPa | 0 mm | - | 208 W/m² | - |
| 1777897815 | 13.89° C | 73% | 1019 hPa | 0 mm | - | 175 W/m² | - |
| 1777897510 | 13.33° C | 76% | 1018.9 hPa | 0 mm | - | 145 W/m² | - |
| 1777897206 | 12.22° C | 77% | 1018.7 hPa | 0 mm | - | 120 W/m² | - |
| 1777896902 | 11.67° C | 82% | 1018.7 hPa | 0 mm | - | 107 W/m² | - |
| 1777896600 | 11.11° C | 81% | 1018.8 hPa | 0 mm | - | 45 W/m² | - |
| 1777896296 | 10.56° C | 82% | 1018.6 hPa | 0 mm | - | 44 W/m² | - |
| 1777895995 | 10.56° C | 82% | 1018.8 hPa | 0 mm | - | 39 W/m² | - |
| 1777895692 | 10° C | 86% | 1018.7 hPa | 0 mm | - | 35 W/m² | - |
| 1777895389 | 10° C | 86% | 1018.8 hPa | 0 mm | - | 33 W/m² | - |
| 1777895087 | 10° C | 85% | 1018.7 hPa | 0 mm | - | 30 W/m² | - |
| 1777894784 | 9.44° C | 89% | 1018.8 hPa | 0 mm | - | 27 W/m² | - |
| 1777894480 | 9.44° C | 89% | 1018.8 hPa | 0 mm | - | 25 W/m² | - |
| 1777894178 | 9.44° C | 88% | 1018.6 hPa | 0 mm | - | 22 W/m² | - |
| 1777893875 | 9.44° C | 87% | 1018.4 hPa | 0 mm | - | 19 W/m² | - |
| 1777893571 | 10° C | 86% | 1018.6 hPa | 0 mm | - | 16 W/m² | - |
| 1777893268 | 10° C | 86% | 1018.5 hPa | 0 mm | - | 13 W/m² | - |
| 1777892964 | 10° C | 85% | 1018.5 hPa | 0 mm | - | 9 W/m² | - |
| 1777892661 | 9.44° C | 84% | 1018.3 hPa | 0 mm | - | 6 W/m² | - |
| 1777892357 | 9.44° C | 88% | 1018.3 hPa | 0 mm | - | 4 W/m² | - |
| 1777892053 | 9.44° C | 88% | 1018.6 hPa | 0 mm | - | 2 W/m² | - |
| 1777891751 | 9.44° C | 88% | 1018.3 hPa | 0 mm | - | 1 W/m² | - |
| 1777891447 | 10° C | 85% | 1018.4 hPa | 0 mm | - | 0 W/m² | - |
| 1777891143 | 9.44° C | 85% | 1018.2 hPa | 0 mm | - | 0 W/m² | - |
| 1777890837 | 9.44° C | 87% | 1018.3 hPa | 0 mm | - | 0 W/m² | - |
* Rain latest hour (hover to see other rain measurements)
** Current wind speed in m/s (hover to see current wind gust speed)